Regional Weather Roundup
Issued by NWS Grand Forks, ND

Home | Current Version | Previous Version | Graphics & Text | Print | Product List | Glossary On
Versions: 1 2 3 4 5 6 7 8 9 10 11 12 13 14 15 16 17 18 19 20 21 22 23 24 25 26 27 28 29 30 31 32 33 34 35 36 37 38 39 40 41 42 43 44 45 46 47 48 49 50
579
ASUS43 KFGF 300310
RWRFGF
PRAIRIE TO PINES  WEATHER ROUNDUP
NATIONAL WEATHER SERVICE EASTERN NORTH DAKOTA/GRAND FORKS ND
1000 PM CDT SAT APR 29 2017

 **SATELLITE DATA USED TO AUGMENT SKY COVER AT AUTOMATED STATIONS**
 *****  WEATHER ACROSS EASTERN NORTH DAKOTA  *****

CITY           SKY/WX    TMP DP  RH WIND       PRES   REMARKS
GRAND FORKS    MOCLDY    52  33  48 SE7       30.22R
GRAND FRKS AFB FAIR      48  28  44 SE6       30.21S
DEVILS LAKE    FAIR      46  33  60 SE9       30.18S
FARGO          FAIR      49  24  37 NE5       30.22R
WAHPETON ARPT  FAIR      48  28  46 NE5       30.24R
$$

 ***** WEATHER ACROSS CENTRAL AND WESTERN NORTH DAKOTA  *****

CITY           SKY/WX    TMP DP  RH WIND       PRES   REMARKS
BISMARCK       FAIR      45  28  51 SE8       30.18R
MINOT          FAIR      52  29  41 SW6       30.12F
JAMESTOWN      FAIR      47  32  56 E6        30.20R
MINOT AFB      FAIR      44  33  66 CALM      30.11F
GARRISON         N/A     44  26  49 SE7       30.14S
WILLISTON      FAIR      47  33  58 NW6       30.12S
DICKINSON      FAIR      40  20  44 S6        30.13R
HETTINGER      FAIR      41  20  43 SE5       30.18R
$$

 *****  OTHER AIRPORT OBSERVATIONS IN OUR AREA  *****

CITY           SKY/WX    TMP DP  RH WIND       PRES   REMARKS
WALHALLA       NOT AVBL
GRAFTON AIRPOR FAIR      46  36  66 SE9       30.22S
VALLEY CITY AR FAIR      46  23  39 E6        30.22S
CANDO          NOT AVBL
CAVALIER APRT  FAIR      50  28  43 S7        30.19R
GWINNER        CLEAR     46  34  61 MISG      30.22R
SHEYENNE NWR     N/A     45  27  49 CALM      29.95S
ROLLA          FAIR      43  27  52 S7        30.15S
 ***** THE ABOVE OBSERVATIONS ARE NON NWS ARE NOT QUALITY
       CONTROLLED AND MAY MIS-REPORT RAIN FOR SNOW...
$$

  *****  WEATHER ACROSS NORTHERN MINNESOTA  *****

CITY           SKY/WX    TMP DP  RH WIND       PRES   REMARKS
FLAG ISLAND    FAIR      48   9  20 CALM      30.22F
WARROAD        FAIR      43  32  65 SE3       30.25R
ROSEAU         FAIR      46  30  53 SE6       30.24R
HALLOCK        FAIR      45  28  53 SE9       30.21S
THF RVR FALLS  FAIR      47  29  49 CALM      30.25R
BAUDETTE       FAIR      44  19  36 NE5       30.24R
WASKISH        FAIR      39  32  75 CALM      30.25R
CROOKSTON      FAIR      54  25  32 CALM      30.24R
STEPHEN NDAWN    N/A     45  30  57 SE6         N/A
GREENBUSH NDAW   N/A     45  34  65 SE3         N/A
$$
  *****  WEATHER ACROSS CENTRAL AND WEST MINNESOTA  *****

CITY           SKY/WX    TMP DP  RH WIND       PRES   REMARKS
FOSSTON        FAIR      43  25  49 CALM      30.25R
BEMIDJI        FAIR      47  23  39 E3        30.25R
PARK RAPIDS    FAIR      48  22  35 CALM      30.24R
ELBOW LAKE     FAIR      49  28  43 NE5       30.22R
WADENA         FAIR      46  25  42 NE6       30.23R
DETROIT LAKES  FAIR      50  23  34 CALM      30.25R
MOORHEAD       FAIR      50  27  40 NE7       30.24R
FERGUS FALLS   FAIR      46  27  46 N3        30.23R
MORRIS MN      FAIR      50  25  37 E8        30.21R
STAPLES        FAIR      48  19  32 NE3       30.23R
$$
  *****  WEATHER ELSEWHERE ACROSS MINNESOTA  *****

CITY           SKY/WX    TMP DP  RH WIND       PRES   REMARKS
DULUTH         FAIR      38  16  40 E10       30.30R
INTRNTL FALLS  FAIR      34  22  61 CALM      30.26R
ELY            FAIR      39  19  45 S3        30.29R
CLOQUET        FAIR      39  12  33 E9        30.29R
WHEATON        FAIR      48  23  37 N5        30.24R
BRAINERD       FAIR      47  20  34 E10       30.24R
HIBBING        FAIR      37  20  50 SE5       30.30R
ALEXANDRIA     FAIR      48  24  39 E7        30.23R
SAINT CLOUD    FAIR      48  17  29 E8        30.23R
MINNEAPOLIS    CLOUDY    51  23  33 NE17      30.20R
$$

  *****  WEATHER ACROSS SOUTH DAKOTA  *****

CITY           SKY/WX    TMP DP  RH WIND       PRES   REMARKS
SIOUX FALLS    CLOUDY    48  28  46 NE12      30.16R
BROOKINGS      FAIR      47  26  44 NE6       30.19R
WATERTOWN      FAIR      45  26  47 NE8       30.19R
HURON          FAIR      47  27  45 NE6       30.19S
SISSETON         N/A     45  29  53 NW6       30.21R
ABERDEEN       FAIR      45  24  43 E8        30.21R
MITCHELL       FAIR      49  27  42 NE12      30.18S
PIERRE         FAIR      45  23  42 NE6       30.17R
MOBRIDGE       FAIR      48  20  32 E10       30.17R
RAPID CITY     FAIR      41  22  46 E7        30.19R
$$

  *****  SOME WEATHER IN NEARBY STATES *****

CITY           SKY/WX    TMP DP  RH WIND       PRES   REMARKS
GLASGOW MT     CLOUDY    51  32  48 S5        30.08F
GREAT FALLS MT FAIR      46  29  51 W8        30.04S
CHEYENNE WY    MOCLDY    31  16  54 N7        30.18S WCI  24
SCOTTSBLUFF NE CLOUDY    41  31  67 NW6       30.19R
OMAHA NE       LGT RAIN  42  37  82 N21       30.03R
DES MOINES IA  LGT RAIN  41  39  93 NE16      30.01R FOG
DAVENPORT IA   CLOUDY    41  38  89 NE21      30.00F
CHICAGO IL     HVY RAIN  44  42  93 NE24G35   29.98F FOG
EAU CLAIRE WI  FAIR      49  26  41 NE8       30.19F
LA CROSSE WI   CLOUDY    49  30  48 E12       30.15S
$$

  *****  SOME NATIONAL WEATHER *****

CITY           SKY/WX    TMP DP  RH WIND       PRES   REMARKS
LA GUARDIA NY  CLOUDY    73  55  53 N16       30.08R
RALEIGH NC     MOCLDY    77  70  79 S7        30.16S
ATLANTA GA     MOCLDY    77  68  73 SE7       30.11R
NEW ORLEANS LA MOCLDY    79  73  82 SE23G31   29.86R
OKLAHOMA CITY  DRIZZLE   51  48  89 NW13      29.68S FOG
ALBUQUERQUE NM LGT RAIN  38  35  89 SW10      30.05R
SALT LAKE CITY FAIR      50  32  50 W7        30.19R
LOS ANGELES CA FAIR      64  44  48 W15       30.00R
BOISE ID       FAIR      58  27  30 CALM      30.15S
SEATTLE WA     LGT RAIN  48  45  89 W8        30.14R
$$

*** WEATHER ACROSS MANITOBA...SASKATCHEWAN AND ONTARIO ***
                ***ONTARIO***

CITY           SKY/WX    TMP DP  RH WIND       PRES   REMARKS
GERALDTON      PTCLDY    30  21  69 CALM      30.34R
THUNDER BAY    PTCLDY    32  27  80 NE3       30.33S
SIOUX LOOKOUT  PTCLDY    28  18  64 SE3       30.27F
TORONTO        PTCLDY    46  27  46 N9        30.26S
BIG TROUT LK   CLEAR     28  18  64 SE3       30.29F
PICKLE LAKE    NOT AVBL
DRYDEN         CLEAR     39  12  33 E3        30.25F
KENORA         PTCLDY    45  12  26 E6        30.23F
$$
                *** MANITOBA***

CITY           SKY/WX    TMP DP  RH WIND       PRES   REMARKS
BRANDON        PTCLDY    46  30  53 SW3       30.11F
DAUPHIN        CLEAR     41  28  60 SW3       30.11S
ISLAND LAKE    PTCLDY    37  23  56 E7        30.20F
PILOT MOUND      N/A     43  25  49 S9          N/A
THE PAS        PTCLDY    36  30  80 SE5       30.10S
THOMPSON       MOCLDY    39  23  52 E5        30.17F
WINNIPEG       PTCLDY    50  23  34 S13       30.17F
LYNN LAKE      CLEAR     39  21  48 SE6       30.09S
CHURCHILL      MOCLDY    18  14  86 S13       30.24F WCI   4
GILLAM         PTCLDY    30  14  51 SE5       30.24F
$$
                ***SASKATCHEWAN***

CITY           SKY/WX    TMP DP  RH WIND       PRES   REMARKS
ESTEVAN        PTCLDY    48  37  66 E5        30.11F
KINDERSLEY     LGT RAIN  43  39  87 SW5       29.99F
LLOYDMINSTER   PTCLDY    43  34  70 S6        29.95F
PRINCE ALBERT  PTCLDY    37  30  75 E8        30.06S
REGINA         PTCLDY    48  28  46 SE6       30.06F
YORKTON        CLEAR     46  27  46 S5        30.09S
N. BATTLEFORD  CLEAR     41  25  52 E10       30.00F
LA RONGE       PTCLDY    45  27  49 SE8       30.05S
SASKATOON      PTCLDY    48  23  37 SW3       30.04S
SWIFT CURRENT  MOCLDY    39  37  93 SE9       30.02F
$$
NOTE: THESE ARE AUTOMATED STATIONS WITH LIMITED QUALITY CONTROL
      "FAIR" INDICATES FEW OR NO CLOUDS BELOW 12,000 FEET WITH NO
      SIGNIFICANT WEATHER AND/OR OBSTRUCTIONS TO VISIBILITY.
      SKY/WX - SKY CONDITION AND SIGNIFICANT WEATHER.
      TMP - AIR TEMPERATURE.    DP   - DEWPOINT TEMPERATURE.
      RH  - RELATIVE HUMIDITY.  PRES - PRESSURE.
      HX  - HEAT INDEX.         WCI  - WIND CHILL INDEX.
$




USA.gov is the U.S. government's official web portal to all federal, state and local government web resources and services.